Location: *
(2.5500°S, 65.9667°W)
Time: 23:51:45
(UTC+00:00)

Transit 4A - All Passes

Search period start: 16 April 2024 00:00
Search period end: 26 April 2024 00:00
Orbit: 871 x 972 km, 66.8° (Epoch: 16 April)

Date Brightness Start Highest point End Pass type
(mag) Time Alt. Az. Time Alt. Az. Time Alt. Az.
16 Apr - 04:45:29 10° NNW 04:51:23 74° WSW 04:57:28 10° SSE night (unlit)
16 Apr - 15:55:53 10° S 16:01:57 51° ESE 16:07:51 10° NE daylight
16 Apr - 17:45:14 10° W 17:47:56 13° WNW 17:50:37 10° NW daylight
17 Apr - 03:11:13 10° NE 03:14:26 15° ENE 03:17:40 10° ESE night (unlit)
17 Apr - 04:54:50 10° NW 05:00:24 43° WSW 05:06:09 10° S night (unlit)
17 Apr - 16:04:41 10° SSW 16:10:58 86° ESE 16:17:04 10° NNE daylight
18 Apr - 03:18:34 10° NNE 03:23:25 26° ENE 03:28:21 10° SE night (unlit)
18 Apr - 05:04:41 10° WNW 05:09:28 25° WSW 05:14:21 10° SSW night (unlit)
18 Apr - 14:31:37 10° SE 14:33:44 12° ESE 14:35:49 10° E daylight
18 Apr - 16:13:51 10° SSW 16:19:58 57° WNW 16:25:55 10° N daylight
19 Apr - 03:26:47 10° N 03:32:23 45° ENE 03:38:09 10° SE night (unlit)
19 Apr - 05:15:27 10° W 05:18:33 14° WSW 05:21:43 10° SW night (unlit)
19 Apr - 14:38:17 10° SSE 14:42:50 21° ESE 14:47:18 10° ENE daylight
19 Apr - 16:23:26 10° SW 16:28:56 33° WNW 16:34:19 10° N daylight
20 Apr - 03:35:27 10° NNW 03:41:22 78° ENE 03:47:28 10° SSE night (unlit)
20 Apr - 14:46:16 10° S 14:51:55 35° ESE 14:57:24 10° NE daylight
20 Apr - 16:33:38 10° WSW 16:37:55 20° WNW 16:42:09 10° NNW daylight
21 Apr - 03:44:31 10° NNW 03:50:22 62° WSW 03:56:25 10° S night (unlit)
21 Apr - 14:54:47 10° S 15:00:56 60° ESE 15:06:56 10° NNE daylight
21 Apr - 16:45:47 10° W 16:46:56 10° WNW 16:48:03 10° WNW daylight
22 Apr - 02:09:32 10° NNE 02:13:24 18° ENE 02:17:20 10° ESE night (unlit)
22 Apr - 03:54:01 10° NW 03:59:24 36° WSW 04:04:58 10° S night (unlit)
22 Apr - 15:03:41 10° SSW 15:09:57 82° WNW 15:16:02 10° NNE daylight
23 Apr - 02:17:14 10° N 02:22:23 31° ENE 02:27:39 10° SE night (unlit)
23 Apr - 04:04:03 10° WNW 04:08:28 21° WSW 04:12:59 10° SSW night (unlit)
23 Apr - 13:29:36 10° SE 13:32:45 14° ESE 13:35:51 10° E daylight
23 Apr - 15:12:59 10° SW 15:18:56 48° WNW 15:24:45 10° N daylight
24 Apr - 02:25:36 10° N 02:31:21 53° ENE 02:37:17 10° SSE night (unlit)
24 Apr - 04:15:25 10° W 04:17:34 12° WSW 04:19:45 10° SW night (unlit)
24 Apr - 13:36:53 10° SSE 13:41:51 25° ESE 13:46:42 10° ENE daylight
24 Apr - 15:22:43 10° SW 15:27:55 28° WNW 15:33:00 10° NNW daylight
25 Apr - 02:34:23 10° NNW 02:40:20 89° W 02:46:29 10° SSE night (unlit)
25 Apr - 13:45:04 10° S 13:50:55 41° ESE 13:56:35 10° NE daylight
25 Apr - 15:33:13 10° WSW 15:36:54 16° WNW 15:40:32 10° NW daylight
